Change the Weather History Date:

Thursday, March 6, 2014

  Actual Average Record
Temperature  
Mean Temperature 21 °F -  
Max Temperature 28 °F 32 °F 68 °F (1987)
Min Temperature 14 °F 12 °F -13 °F (1955)
Degree Days  
Heating Degree Days 44    
Moisture  
Dew Point 21 °F    
Average Humidity 92    
Maximum Humidity 100    
Minimum Humidity 80    
Precipitation  
Precipitation 0.00 in - - ()
Sea Level Pressure  
Sea Level Pressure 29.91 in    
Wind  
Wind Speed 21 mph (SSE)    
Max Wind Speed 29 mph    
Max Gust Speed 33 mph    
Visibility 3 miles    
Events      
Averages and records for this station are not official NWS values.
T = Trace of Precipitation, MM = Missing Value Source: NWS Daily Summary

Daily Weather History Graph

Daily Weather History Graph

Search for Another Location

Airport or City:

Trip Planner

Search our weather history database for the weather conditions in past years. The results will help you decide how hot, cold, wet, or windy it might be!

Date:

Astronomy

Mar. 06, 2014 Rise Set
Actual Time 6:50 AM CST 6:15 PM CST
Civil Twilight 6:21 AM CST 6:44 PM CST
Nautical Twilight 5:46 AM CST 7:19 PM CST
Astronomical Twilight 5:12 AM CST 7:53 PM CST
Moon 9:42 AM CST (3/6) No Moon Set
Length of Visible Light 12h 23m
Length of Day
11h 24m
Waxing Crescent, 32% of the Moon is Illuminated
Mar 6
Waxing Crescent
Mar 8
First Quarter
Mar 16
Full
Mar 23
Last Quarter
Mar 30
New

Hourly Weather History & Observations

Time (CST) Temp. Windchill Dew Point Humidity Pressure Visibility Wind Dir Wind Speed Gust Speed Precip Events Conditions
12:13 AM 15.8 °F -1.5 °F 12.2 °F 86% 30.19 in 5.0 mi SSE 20.7 mph 29.9 mph N/A   Mostly Cloudy
12:33 AM 15.8 °F -2.3 °F 12.2 °F 86% 30.20 in 5.0 mi South 23.0 mph - N/A   Overcast
12:53 AM 14.0 °F -4.7 °F 12.2 °F 93% 30.19 in 4.0 mi South 23.0 mph 28.8 mph N/A   Overcast
1:14 AM 14.0 °F -3.9 °F 12.2 °F 93% 30.17 in 3.0 mi SSE 20.7 mph 27.6 mph N/A   Overcast
1:33 AM 15.8 °F -1.9 °F 12.2 °F 86% 30.17 in 4.0 mi South 21.9 mph 27.6 mph N/A   Mostly Cloudy
1:53 AM 15.8 °F -1.5 °F 14.0 °F 93% 30.16 in 4.0 mi South 20.7 mph 25.3 mph N/A   Scattered Clouds
2:14 AM 15.8 °F -2.3 °F 14.0 °F 93% 30.15 in 3.0 mi South 23.0 mph 27.6 mph N/A   Scattered Clouds
2:33 AM 15.8 °F -2.7 °F 15.8 °F 100% 30.14 in 3.0 mi SSE 24.2 mph 28.8 mph N/A   Mist
2:53 AM 17.6 °F -0.3 °F 15.8 °F 93% 30.13 in 3.0 mi SSE 24.2 mph 27.6 mph N/A   Mist
3:13 AM 17.6 °F 0.5 °F 15.8 °F 93% 30.11 in 3.0 mi SSE 21.9 mph 28.8 mph N/A   Mist
3:33 AM 17.6 °F 0.5 °F 15.8 °F 93% 30.10 in 3.0 mi SSE 21.9 mph 29.9 mph N/A   Mist
3:53 AM 15.8 °F -0.6 °F 15.8 °F 100% 30.10 in 4.0 mi SSE 18.4 mph - N/A   Clear
4:13 AM 15.8 °F -1.5 °F 15.8 °F 100% 30.09 in 4.0 mi SSE 20.7 mph 26.5 mph N/A   Clear
4:34 AM 17.6 °F 0.1 °F 15.8 °F 93% 30.07 in 3.0 mi SSE 23.0 mph 29.9 mph N/A   Clear
4:53 AM 17.6 °F 0.1 °F 15.8 °F 93% 30.05 in 3.0 mi SSE 23.0 mph 31.1 mph N/A   Clear
5:13 AM 17.6 °F 0.5 °F 15.8 °F 93% 30.04 in 4.0 mi SSE 21.9 mph 26.5 mph N/A   Clear
5:34 AM 17.6 °F 0.9 °F 15.8 °F 93% 30.03 in 4.0 mi SSE 20.7 mph 26.5 mph N/A   Clear
5:53 AM 17.6 °F 1.3 °F 15.8 °F 93% 30.03 in 5.0 mi South 19.6 mph 24.2 mph N/A   Clear
6:13 AM 17.6 °F -0.3 °F 15.8 °F 93% 30.02 in 3.0 mi South 24.2 mph - N/A   Clear
6:33 AM 17.6 °F 0.1 °F 15.8 °F 93% 30.02 in 3.0 mi South 23.0 mph 31.1 mph N/A   Mist
6:53 AM 17.6 °F -0.6 °F 15.8 °F 93% 30.01 in 2.5 mi SSE 25.3 mph - N/A   Mist
7:13 AM 17.6 °F -0.3 °F 15.8 °F 93% 30.02 in 2.0 mi SSE 24.2 mph 31.1 mph N/A   Mist
7:33 AM 17.6 °F 0.5 °F 15.8 °F 93% 30.02 in 2.5 mi SSE 21.9 mph 26.5 mph N/A   Mist
7:53 AM 17.6 °F 1.3 °F 15.8 °F 93% 30.01 in 3.0 mi SSE 19.6 mph - N/A   Mist
8:13 AM 17.6 °F 0.5 °F 15.8 °F 93% 29.99 in 3.0 mi SSE 21.9 mph 26.5 mph N/A   Mist
8:33 AM 17.6 °F 0.1 °F 15.8 °F 93% 29.97 in 2.5 mi SSE 23.0 mph 28.8 mph N/A   Mist
8:53 AM 19.4 °F 3.2 °F 15.8 °F 86% 29.96 in 2.0 mi SSE 20.7 mph 28.8 mph N/A   Mist
9:13 AM 19.4 °F 2.5 °F 17.6 °F 93% 29.96 in 2.5 mi SSE 23.0 mph 27.6 mph N/A   Mist
9:33 AM 19.4 °F 1.8 °F 17.6 °F 93% 29.95 in 2.5 mi SSE 25.3 mph - N/A   Mist
9:53 AM 21.2 °F 4.9 °F 17.6 °F 86% 29.93 in 2.5 mi SSE 23.0 mph 27.6 mph N/A   Mist
10:13 AM 21.2 °F 4.9 °F 17.6 °F 86% 29.93 in 2.5 mi SSE 23.0 mph 29.9 mph N/A   Clear
10:33 AM 23.0 °F 7.2 °F 19.4 °F 86% 29.91 in 2.0 mi SSE 23.0 mph 33.4 mph N/A   Mist
10:53 AM 23.0 °F 5.7 °F 19.4 °F 86% 29.90 in 1.8 mi SSE 28.8 mph 32.2 mph N/A   Clear
11:13 AM 24.8 °F 8.7 °F 19.4 °F 80% 29.89 in 2.0 mi SSE 26.5 mph 32.2 mph N/A   Clear
11:33 AM 24.8 °F 8.4 °F 19.4 °F 80% 29.89 in 1.8 mi SSE 27.6 mph - N/A   Clear
11:53 AM 24.8 °F 9.6 °F 19.4 °F 80% 29.90 in 3.0 mi SSE 23.0 mph 27.6 mph N/A   Haze
12:13 PM 26.6 °F 13.1 °F 21.2 °F 80% 29.88 in 3.0 mi SSE 19.6 mph 25.3 mph N/A   Haze
12:34 PM 26.6 °F 12.7 °F 21.2 °F 80% 29.88 in 3.0 mi SSE 20.7 mph 28.8 mph N/A   Haze
12:53 PM 26.6 °F 12.0 °F 21.2 °F 80% 29.87 in 3.0 mi South 23.0 mph 29.9 mph N/A   Haze
1:13 PM 26.6 °F 12.0 °F 21.2 °F 80% 29.87 in 3.0 mi SSE 23.0 mph 27.6 mph N/A   Haze
1:33 PM 26.6 °F 12.7 °F 23.0 °F 86% 29.85 in 3.0 mi SSE 20.7 mph 26.5 mph N/A   Mist
1:53 PM 26.6 °F 12.0 °F 23.0 °F 86% 29.84 in 2.5 mi SSE 23.0 mph 27.6 mph N/A   Mist
2:14 PM 26.6 °F 11.7 °F 24.8 °F 93% 29.82 in 2.5 mi South 24.2 mph 31.1 mph N/A   Mist
2:33 PM 26.6 °F 12.0 °F 24.8 °F 93% 29.82 in 2.5 mi South 23.0 mph - N/A   Mist
2:53 PM 26.6 °F 12.4 °F 24.8 °F 93% 29.81 in 2.5 mi SSE 21.9 mph 27.6 mph N/A   Mist
3:13 PM 26.6 °F 11.7 °F 24.8 °F 93% 29.81 in 2.0 mi South 24.2 mph 32.2 mph N/A   Mist
3:33 PM 26.6 °F 13.4 °F 24.8 °F 93% 29.80 in 2.5 mi SSE 18.4 mph 26.5 mph N/A   Mist
3:54 PM 26.6 °F 13.4 °F 24.8 °F 93% 29.81 in 2.5 mi SSE 18.4 mph 25.3 mph N/A   Mist
4:13 PM 26.6 °F 12.7 °F 24.8 °F 93% 29.80 in 2.5 mi SSE 20.7 mph 25.3 mph N/A   Mist
4:33 PM 26.6 °F 13.8 °F 24.8 °F 93% 29.80 in 2.5 mi SSE 17.3 mph 24.2 mph N/A   Mist
4:53 PM 26.6 °F 13.4 °F 24.8 °F 93% 29.79 in 2.5 mi SSE 18.4 mph 24.2 mph N/A   Mist
5:13 PM 26.6 °F 13.4 °F 24.8 °F 93% 29.79 in 2.5 mi SSE 18.4 mph 21.9 mph N/A   Mist
5:33 PM 26.6 °F 14.3 °F 24.8 °F 93% 29.79 in 2.5 mi South 16.1 mph - N/A   Mist
5:53 PM 26.6 °F 14.3 °F 26.6 °F 100% 29.77 in 2.0 mi SSE 16.1 mph - N/A   Mist
6:13 PM 26.6 °F 15.2 °F 26.6 °F 100% 29.78 in 2.0 mi SSE 13.8 mph - N/A   Mist
6:33 PM 26.6 °F 14.7 °F 26.6 °F 100% 29.77 in 3.0 mi SSE 15.0 mph - N/A   Mist
6:53 PM 26.6 °F 13.8 °F 26.6 °F 100% 29.76 in 3.0 mi SSE 17.3 mph - N/A   Mist
7:13 PM 28.4 °F 17.0 °F 26.6 °F 93% 29.76 in 3.0 mi SSE 15.0 mph - N/A   Mist
7:33 PM 28.4 °F 17.5 °F 26.6 °F 93% 29.76 in 3.0 mi SSE 13.8 mph - N/A   Mist
7:53 PM 28.4 °F 15.8 °F 26.6 °F 93% 29.75 in 3.0 mi SSE 18.4 mph - N/A   Mist
8:13 PM 28.4 °F 16.2 °F 26.6 °F 93% 29.75 in 3.0 mi SSE 17.3 mph - N/A   Mist
8:33 PM 28.4 °F 16.6 °F 26.6 °F 93% 29.75 in 3.0 mi SSE 16.1 mph 19.6 mph N/A   Clear
8:54 PM 28.4 °F 20.4 °F 26.6 °F 93% 29.76 in 3.0 mi SSE 8.1 mph - N/A   Mist
9:13 PM 28.4 °F 18.5 °F 26.6 °F 93% 29.75 in 2.5 mi SE 11.5 mph - N/A   Mist
9:33 PM 26.6 °F 16.2 °F 26.6 °F 100% 29.74 in 2.5 mi SE 11.5 mph - N/A   Mist
9:54 PM 26.6 °F 15.2 °F 26.6 °F 100% 29.73 in 2.5 mi SSE 13.8 mph - N/A   Clear
10:13 PM 26.6 °F 15.7 °F 26.6 °F 100% 29.73 in 2.5 mi SSE 12.7 mph - N/A   Clear
10:33 PM 26.6 °F 16.8 °F 26.6 °F 100% 29.73 in 3.0 mi SSE 10.4 mph - N/A   Clear
10:53 PM 26.6 °F 17.5 °F 26.6 °F 100% 29.72 in 3.0 mi SSE 9.2 mph - N/A   Clear
11:13 PM 26.6 °F 16.2 °F 24.8 °F 93% 29.71 in 2.5 mi SE 11.5 mph - N/A   Clear
11:34 PM 26.6 °F 16.8 °F 24.8 °F 93% 29.71 in 3.0 mi SSE 10.4 mph - N/A   Clear
11:53 PM 26.6 °F 18.2 °F 26.6 °F 100% 29.72 in 3.0 mi South 8.1 mph - N/A   Clear